GW1753 Weather Reports


time (UTC)temp
C
wind
direction
speed
KPH
gust
KPH
rain 1hr
cm
rain 24hr
cm
rain mn
cm
humidity
%
barometer
mb
20260906232414 18 328 11.3 20.9 0.00 0.00 0.00 72 1018.4
20260906231908 18 353 9.7 16.1 0.00 0.00 0.00 72 1018.4
20260906231403 18 353 6.4 14.5 0.00 0.00 0.00 70 1018.6
20260906230902 18 349 4.8 12.9 0.00 0.00 0.00 71 1018.5
20260906230357 19 322 9.7 12.9 0.00 0.00 0.00 70 1018.7
20260906225855 18 349 6.4 11.3 0.00 0.00 0.00 71 1018.5
20260906225351 18 343 8.0 12.9 0.00 0.00 0.00 71 1018.7
20260906224847 18 335 6.4 12.9 0.00 0.00 0.00 70 1018.8
20260906224343 18 306 4.8 11.3 0.00 0.00 0.00 70 1018.8
20260906223839 18 26 8.0 12.9 0.00 0.00 0.00 70 1018.9
20260906223335 18 348 6.4 6.4 0.00 0.00 0.00 70 1019.0
20260906222833 18 333 6.4 9.7 0.00 0.00 0.00 70 1019.1
20260906222333 18 321 4.8 6.4 0.00 0.00 0.00 70 1019.1
20260906221830 18 351 4.8 11.3 0.00 0.00 0.00 70 1019.2
20260906221330 19 323 8.0 11.3 0.00 0.00 0.00 69 1019.1
20260906220825 19 305 1.6 3.2 0.00 0.00 0.00 69 1019.1
20260906220321 19 307 4.8 9.7 0.00 0.00 0.00 69 1018.9
20260906215819 19 325 4.8 11.3 0.00 0.00 0.00 69 1019.1
20260906215315 19 317 3.2 4.8 0.00 0.00 0.00 68 1019.0
20260906214812 19 318 1.6 11.3 0.00 0.00 0.00 69 1019.0
20260906214307 19 310 3.2 9.7 0.00 0.00 0.00 67 1018.7
20260906213807 19 206 1.6 3.2 0.00 0.00 0.00 66 1019.0
20260906213307 19 316 1.6 6.4 0.00 0.00 0.00 67 1019.0
20260906212804 19 279 1.6 3.2 0.00 0.00 0.00 66 1019.1
20260906212300 19 281 0.0 4.8 0.00 0.00 0.00 67 1019.1
20260906211759 18 337 4.8 4.8 0.00 0.00 0.00 68 1019.2
20260906211254 18 310 1.6 6.4 0.00 0.00 0.00 67 1019.2
20260906210750 18 173 1.6 4.8 0.00 0.00 0.00 67 1019.1
20260906210244 18 259 0.0 3.2 0.00 0.00 0.00 67 1019.2
20260906205744 18 279 1.6 4.8 0.00 0.00 0.00 67 1019.1
20260906205241 18 319 1.6 4.8 0.00 0.00 0.00 67 1019.2
20260906204736 18 54 8.0 9.7 0.00 0.00 0.00 66 1019.2
20260906204235 18 302 3.2 6.4 0.00 0.00 0.00 68 1019.2
20260906203735 18 353 3.2 11.3 0.00 0.00 0.00 69 1019.4
20260906203230 18 77 3.2 4.8 0.00 0.00 0.00 69 1019.4
20260906202727 18 69 6.4 11.3 0.00 0.00 0.00 70 1019.4
20260906202227 18 67 6.4 11.3 0.00 0.00 0.00 68 1019.4
20260906201727 18 57 3.2 4.8 0.00 0.00 0.00 68 1019.4
20260906201226 18 329 4.8 4.8 0.00 0.00 0.00 70 1019.2
20260906200722 17 245 0.0 3.2 0.00 0.00 0.00 70 1019.3
20260906200218 17 102 4.8 9.7 0.00 0.00 0.00 72 1019.6
20260906195713 17 71 8.0 12.9 0.00 0.00 0.00 71 1019.7
20260906195209 17 61 1.6 3.2 0.00 0.00 0.00 72 1019.6
20260906194705 17 35 1.6 11.3 0.00 0.00 0.00 73 1019.7
20260906194200 17 47 6.4 11.3 0.00 0.00 0.00 73 1019.8
20260906193655 17 34 1.6 9.7 0.00 0.00 0.00 73 1019.8
20260906193150 17 359 1.6 6.4 0.00 0.00 0.00 73 1019.8
20260906192646 17 70 3.2 11.3 0.00 0.00 0.00 74 1020.0
20260906192145 17 44 4.8 6.4 0.00 0.00 0.00 75 1020.0
20260906191640 17 57 3.2 6.4 0.00 0.00 0.00 76 1019.8
20260906191139 17 55 3.2 6.4 0.00 0.00 0.00 75 1019.8
20260906190634 17 321 4.8 6.4 0.00 0.00 0.00 74 1020.1
20260906190129 17 332 4.8 6.4 0.00 0.00 0.00 74 1019.9
20260906185628 17 329 4.8 6.4 0.00 0.00 0.00 75 1020.0
20260906185127 17 22 3.2 6.4 0.00 0.00 0.00 75 1019.9
20260906184622 16 54 6.4 12.9 0.00 0.00 0.00 76 1020.0
20260906184118 17 64 8.0 11.3 0.00 0.00 0.00 75 1020.2
20260906183613 16 37 6.4 12.9 0.00 0.00 0.00 76 1020.2
20260906183109 16 32 4.8 9.7 0.00 0.00 0.00 76 1020.2
20260906182603 16 52 11.3 17.7 0.00 0.00 0.00 75 1020.4
20260906182100 16 358 6.4 9.7 0.00 0.00 0.00 77 1020.5
20260906181555 16 67 6.4 16.1 0.00 0.00 0.00 78 1020.4
20260906181051 15 26 4.8 6.4 0.00 0.00 0.00 80 1020.5
20260906180551 15 308 4.8 11.3 0.00 0.00 0.00 81 1020.8
20260906180049 15 65 9.7 16.1 0.00 0.00 0.00 84 1020.4
20260906175549 15 10 8.0 20.9 0.00 0.00 0.00 87 1019.7
20260906175044 15 50 11.3 16.1 0.00 0.00 0.00 86 1019.8
20260906174542 16 89 6.4 12.9 0.00 0.00 0.00 84 1020.0
20260906174037 15 13 3.2 6.4 0.00 0.00 0.00 85 1020.1
20260906173532 15 344 6.4 11.3 0.00 0.00 0.00 86 1020.6
20260906173029 15 340 8.0 14.5 0.00 0.00 0.00 85 1021.0
20260906172528 15 343 6.4 14.5 0.00 0.00 0.00 85 1021.2
20260906172024 14 341 6.4 17.7 0.00 0.00 0.00 85 1021.4
20260906171518 14 314 11.3 16.1 0.00 0.00 0.00 86 1021.7
20260906171014 13 347 8.0 16.1 0.00 0.00 0.00 86 1021.5
20260906170510 13 11 8.0 11.3 0.00 0.00 0.00 86 1021.5
20260906170008 13 359 14.5 17.7 0.00 0.00 0.00 86 1021.7
20260906165506 13 348 6.4 16.1 0.00 0.00 0.00 86 1021.7
20260906165000 13 354 6.4 12.9 0.00 0.00 0.00 86 1021.5
20260906164459 13 328 9.7 12.9 0.00 0.00 0.00 86 1021.5
20260906163956 13 4 9.7 16.1 0.00 0.00 0.00 87 1021.6
20260906163451 13 335 9.7 12.9 0.00 0.00 0.00 87 1021.6
20260906162950 13 325 6.4 14.5 0.00 0.00 0.00 87 1021.7
20260906162448 13 351 8.0 14.5 0.00 0.00 0.00 88 1021.6
20260906161943 13 350 6.4 12.9 0.00 0.00 0.00 88 1021.7
20260906161437 12 336 6.4 14.5 0.00 0.00 0.00 88 1021.7
20260906160931 12 16 11.3 17.7 0.00 0.00 0.00 88 1021.7
20260906160430 12 333 8.0 17.7 0.00 0.00 0.00 88 1021.7
20260906155928 12 349 8.0 12.9 0.00 0.00 0.00 87 1021.8
20260906155422 12 342 8.0 12.9 0.00 0.00 0.00 87 1022.0
20260906154919 12 335 12.9 17.7 0.00 0.00 0.00 88 1022.0
20260906154418 12 357 16.1 17.7 0.00 0.00 0.00 89 1021.8
20260906153917 12 352 12.9 20.9 0.00 0.00 0.00 90 1022.1
20260906153416 12 331 12.9 20.9 0.00 0.00 0.00 90 1022.1
20260906152911 12 350 16.1 22.5 0.00 0.00 0.00 89 1022.1
20260906152406 12 334 16.1 20.9 0.00 0.00 0.00 89 1022.2
20260906151906 13 325 11.3 22.5 0.00 0.00 0.00 88 1022.2
20260906151401 13 3 14.5 17.7 0.00 0.00 0.00 88 1022.4
20260906150857 13 327 9.7 14.5 0.00 0.00 0.00 87 1022.4
20260906150352 13 347 14.5 17.7 0.00 0.00 0.00 86 1022.3
20260906145851 13 332 12.9 14.5 0.00 0.00 0.00 86 1022.4
20260906145350 13 349 9.7 14.5 0.00 0.00 0.00 86 1022.6
20260906144845 15 319 9.7 14.5 0.00 0.00 0.00 84 1022.7
20260906144340 15 298 4.8 6.4 0.00 0.00 0.00 85 1022.6
20260906143840 15 249 4.8 6.4 0.00 0.00 0.00 84 1022.8
20260906143336 15 285 1.6 3.2 0.00 0.00 0.00 84 1022.7
20260906142832 15 294 1.6 3.2 0.00 0.00 0.00 83 1022.6
20260906142327 15 271 0.0 1.6 0.00 0.00 0.00 84 1022.3
20260906141826 15 302 1.6 3.2 0.00 0.00 0.00 83 1022.2
20260906141321 15 264 1.6 1.6 0.00 0.00 0.00 83 1022.1
20260906140819 15 343 3.2 6.4 0.00 0.00 0.00 84 1021.8
20260906140315 15 40 3.2 4.8 0.00 0.00 0.00 83 1022.1
20260906135812 15 51 3.2 12.9 0.00 0.00 0.00 84 1021.7
20260906135308 15 57 8.0 9.7 0.00 0.00 0.00 83 1022.1
20260906134803 15 48 6.4 6.4 0.00 0.00 0.00 83 1022.2
20260906134258 15 308 1.6 4.8 0.00 0.00 0.00 83 1022.2
20260906133753 15 52 3.2 9.7 0.00 0.00 0.00 84 1022.4
20260906133249 15 42 8.0 11.3 0.00 0.00 0.00 83 1022.0
20260906132744 15 67 6.4 9.7 0.00 0.00 0.00 83 1021.8
20260906132239 15 49 8.0 12.9 0.00 0.00 0.00 83 1021.7
20260906131735 15 75 3.2 11.3 0.00 0.00 0.00 84 1022.1
20260906131230 15 20 4.8 6.4 0.00 0.00 0.00 85 1022.0
20260906130726 15 234 1.6 3.2 0.00 0.00 0.00 85 1022.1
20260906130220 15 310 3.2 6.4 0.00 0.00 0.00 85 1022.1
20260906125719 15 290 3.2 9.7 0.00 0.00 0.00 85 1022.1
20260906125217 15 319 3.2 11.3 0.00 0.00 0.00 85 1022.0
20260906124712 15 345 4.8 6.4 0.00 0.00 0.00 85 1022.1
20260906124208 15 319 6.4 6.4 0.00 0.00 0.00 85 1022.2
20260906123706 14 344 3.2 9.7 0.00 0.00 0.00 85 1022.3
20260906123202 14 337 4.8 6.4 0.00 0.00 0.00 86 1022.2
20260906122701 14 353 4.8 9.7 0.00 0.00 0.00 86 1022.2
20260906122157 14 329 4.8 6.4 0.00 0.00 0.00 86 1022.2
20260906121653 14 348 4.8 11.3 0.00 0.00 0.00 85 1021.8
20260906121149 14 144 4.8 11.3 0.00 0.00 0.00 85 1021.5
20260906120645 14 336 6.4 9.7 0.00 0.00 0.00 85 1021.5
20260906120142 14 335 4.8 6.4 0.00 0.00 0.00 85 1021.7
20260906115642 14 355 6.4 9.7 0.00 0.00 0.00 85 1021.8
20260906115138 14 357 4.8 6.4 0.00 0.00 0.00 85 1021.7
20260906114636 14 322 4.8 11.3 0.00 0.00 0.00 85 1021.8
20260906114131 14 344 6.4 12.9 0.00 0.00 0.00 85 1021.7
20260906113631 15 355 9.7 14.5 0.00 0.00 0.00 85 1021.7
20260906113126 14 303 6.4 6.4 0.00 0.00 0.00 85 1021.8
20260906112625 14 14 8.0 11.3 0.00 0.00 0.00 84 1021.7
20260906112123 14 333 4.8 17.7 0.00 0.00 0.00 84 1021.6
20260906111621 14 332 6.4 12.9 0.00 0.00 0.00 84 1021.7
20260906111117 14 338 3.2 11.3 0.00 0.00 0.00 84 1021.7
20260906110618 14 323 4.8 6.4 0.00 0.00 0.00 84 1021.8
20260906110118 14 322 6.4 11.3 0.00 0.00 0.00 84 1021.8
20260906105612 14 351 6.4 11.3 0.00 0.00 0.00 84 1022.0
20260906105108 14 337 4.8 11.3 0.00 0.00 0.00 85 1022.1
20260906104607 14 352 6.4 9.7 0.00 0.00 0.00 85 1022.2
20260906104101 14 355 6.4 11.3 0.00 0.00 0.00 85 1022.0
20260906103600 14 342 6.4 9.7 0.00 0.00 0.00 85 1022.0
20260906103055 14 355 3.2 6.4 0.00 0.00 0.00 85 1022.0
20260906102555 14 318 6.4 14.5 0.00 0.00 0.00 85 1022.2
20260906102050 14 350 8.0 12.9 0.00 0.00 0.00 85 1022.0
20260906101544 14 337 6.4 12.9 0.00 0.00 0.00 85 1022.1
20260906101039 14 351 9.7 12.9 0.00 0.00 0.00 85 1022.0
20260906100535 14 343 8.0 12.9 0.00 0.00 0.00 84 1022.0
20260906100035 14 331 6.4 12.9 0.00 0.00 0.00 84 1022.2
20260906095530 14 339 6.4 11.3 0.00 0.00 0.00 83 1022.3
20260906095025 14 356 9.7 12.9 0.00 0.00 0.00 83 1022.0
20260906094524 15 329 6.4 12.9 0.00 0.00 0.00 83 1022.0
20260906094020 15 326 6.4 11.3 0.00 0.00 0.00 83 1021.8
20260906093516 14 3 8.0 17.7 0.00 0.00 0.00 83 1022.0
20260906093016 14 348 8.0 16.1 0.00 0.00 0.00 83 1021.8
20260906092511 14 311 9.7 11.3 0.00 0.00 0.00 83 1021.8
20260906092006 14 18 6.4 12.9 0.00 0.00 0.00 83 1022.0
20260906091502 14 314 11.3 16.1 0.00 0.00 0.00 83 1022.1
20260906090958 14 5 8.0 14.5 0.00 0.00 0.00 83 1022.2
20260906090453 14 8 9.7 12.9 0.00 0.00 0.00 83 1022.3
20260906085953 15 341 6.4 16.1 0.00 0.00 0.00 82 1022.4
20260906085452 15 340 14.5 22.5 0.00 0.00 0.00 82 1022.3
20260906084951 15 343 6.4 16.1 0.00 0.00 0.00 81 1022.4
20260906084446 15 323 8.0 12.9 0.00 0.00 0.00 80 1022.5
20260906083945 15 327 8.0 17.7 0.00 0.00 0.00 80 1022.6
20260906083441 15 331 6.4 11.3 0.00 0.00 0.00 80 1022.8
20260906082940 15 342 6.4 9.7 0.00 0.00 0.00 80 1022.7
20260906082436 15 21 6.4 12.9 0.00 0.00 0.00 80 1022.8
20260906081931 15 319 4.8 9.7 0.00 0.00 0.00 80 1022.8
20260906081426 15 316 6.4 12.9 0.00 0.00 0.00 81 1023.0
20260906080923 15 332 3.2 6.4 0.00 0.00 0.00 81 1022.9
20260906080419 15 348 3.2 4.8 0.00 0.00 0.00 81 1023.0
20260906075919 14 305 1.6 4.8 0.00 0.00 0.00 82 1023.2
20260906075414 14 285 1.6 3.2 0.00 0.00 0.00 82 1023.2
20260906074909 14 318 3.2 4.8 0.00 0.00 0.00 82 1023.3
20260906074408 14 278 3.2 11.3 0.00 0.00 0.00 81 1023.3
20260906073908 14 329 3.2 9.7 0.00 0.00 0.00 82 1023.2
20260906073402 14 313 3.2 4.8 0.00 0.00 0.00 82 1023.0
20260906072859 14 329 3.2 6.4 0.00 0.00 0.00 83 1023.2
20260906072354 13 331 3.2 3.2 0.00 0.00 0.00 83 1023.3
20260906071850 13 328 4.8 6.4 0.00 0.00 0.00 84 1023.2
20260906071345 13 337 3.2 6.4 0.00 0.00 0.00 84 1023.3
20260906070841 13 353 6.4 9.7 0.00 0.00 0.00 85 1023.0
20260906070336 13 313 3.2 6.4 0.00 0.00 0.00 85 1023.2
20260906065832 13 316 3.2 4.8 0.00 0.00 0.00 85 1023.2
20260906065326 13 334 8.0 11.3 0.00 0.00 0.00 85 1023.3
20260906064823 13 302 3.2 6.4 0.00 0.00 0.00 84 1023.5
20260906064319 13 318 8.0 14.5 0.00 0.00 0.00 84 1023.4
20260906063818 13 1 9.7 12.9 0.00 0.00 0.00 83 1023.4
20260906063314 14 3 3.2 6.4 0.00 0.00 0.00 82 1023.7
20260906062809 14 308 1.6 6.4 0.00 0.00 0.00 82 1023.8
20260906062308 14 290 1.6 3.2 0.00 0.00 0.00 82 1023.9
20260906061804 14 289 3.2 4.8 0.00 0.00 0.00 81 1023.9
20260906061300 14 301 1.6 4.8 0.00 0.00 0.00 81 1023.9
20260906060755 14 340 6.4 11.3 0.00 0.00 0.00 80 1023.8
20260906060253 14 333 8.0 11.3 0.00 0.00 0.00 79 1023.7
20260906055748 14 310 4.8 9.7 0.00 0.03 0.03 78 1023.7
20260906055243 15 335 3.2 14.5 0.00 0.03 0.03 78 1023.6
20260906054738 15 326 4.8 12.9 0.00 0.03 0.03 78 1023.5
20260906054234 15 1 6.4 14.5 0.00 0.03 0.03 77 1023.6
20260906053730 15 3 6.4 12.9 0.00 0.03 0.03 77 1023.5
20260906053226 15 327 6.4 12.9 0.00 0.03 0.03 76 1023.3
20260906052721 15 333 4.8 9.7 0.00 0.03 0.03 75 1023.3
20260906052217 15 315 4.8 12.9 0.00 0.03 0.03 74 1023.0
20260906051714 15 3 8.0 11.3 0.00 0.03 0.03 74 1023.3
20260906051213 15 341 6.4 9.7 0.00 0.03 0.03 74 1023.0
20260906050708 15 20 8.0 12.9 0.00 0.03 0.03 74 1023.2
20260906050203 15 352 6.4 12.9 0.00 0.03 0.03 74 1022.8
20260906045702 15 324 8.0 11.3 0.00 0.03 0.03 74 1022.7
20260906045157 15 333 6.4 11.3 0.00 0.03 0.03 75 1022.9
20260906044653 15 320 6.4 12.9 0.00 0.03 0.03 75 1022.7
20260906044148 15 344 6.4 11.3 0.00 0.03 0.03 75 1022.7
20260906043644 15 325 8.0 17.7 0.00 0.03 0.03 75 1022.9
20260906043139 15 17 12.9 17.7 0.00 0.03 0.03 75 1022.8
20260906042639 15 344 12.9 20.9 0.00 0.03 0.03 75 1023.5
20260906042133 15 334 11.3 14.5 0.00 0.03 0.03 74 1023.0
20260906041630 15 336 6.4 14.5 0.00 0.03 0.03 73 1022.2
20260906041130 15 359 9.7 17.7 0.00 0.03 0.03 73 1022.4
20260906040625 15 336 6.4 11.3 0.00 0.03 0.03 73 1022.2
20260906040121 15 15 6.4 17.7 0.00 0.03 0.03 72 1021.8
20260906035616 15 325 9.7 14.5 0.00 0.03 0.03 71 1022.0
20260906035111 15 7 9.7 14.5 0.00 0.03 0.03 70 1021.7
20260906034611 15 330 8.0 17.7 0.00 0.03 0.03 70 1022.1
20260906034106 15 6 9.7 14.5 0.00 0.03 0.03 69 1022.2
20260906033602 15 345 9.7 16.1 0.00 0.03 0.03 68 1022.2
20260906033057 16 10 12.9 20.9 0.00 0.03 0.03 68 1022.3
20260906032554 16 349 9.7 14.5 0.00 0.03 0.03 67 1022.5
20260906032053 16 306 6.4 16.1 0.00 0.03 0.03 67 1022.7
20260906031549 16 321 9.7 16.1 0.00 0.03 0.03 66 1022.2
20260906031044 16 344 6.4 20.9 0.00 0.03 0.03 66 1022.3
20260906030544 16 324 12.9 16.1 0.00 0.03 0.03 66 1022.2
20260906030044 16 332 11.3 14.5 0.00 0.03 0.03 65 1022.7
20260906025543 16 5 12.9 16.1 0.00 0.03 0.03 65 1022.5
20260906025042 16 303 8.0 11.3 0.00 0.03 0.03 65 1021.4
20260906024537 16 316 8.0 20.9 0.00 0.03 0.03 65 1021.1
20260906024037 16 323 9.7 14.5 0.00 0.03 0.03 66 1021.0
20260906023533 16 351 12.9 16.1 0.00 0.03 0.03 66 1020.9
20260906023028 16 300 6.4 12.9 0.00 0.03 0.03 65 1021.1
20260906022523 16 222 9.7 14.5 0.00 0.03 0.03 64 1020.9
20260906022019 16 340 8.0 12.9 0.00 0.03 0.03 64 1020.8
20260906021515 17 228 4.8 12.9 0.00 0.03 0.03 63 1021.1
20260906021008 17 281 3.2 16.1 0.00 0.03 0.03 62 1021.0
20260906020508 17 341 6.4 11.3 0.00 0.03 0.03 61 1020.8
20260906020007 17 330 4.8 16.1 0.00 0.03 0.03 60 1020.6
20260906015506 18 315 4.8 11.3 0.00 0.03 0.03 59 1020.8
20260906015007 18 275 6.4 11.3 0.00 0.03 0.03 58 1020.9
20260906014501 18 315 4.8 11.3 0.00 0.03 0.03 57 1020.8
20260906013957 18 261 8.0 12.9 0.00 0.03 0.03 57 1021.1
20260906013452 18 327 9.7 14.5 0.00 0.03 0.03 56 1020.4
20260906012943 19 15 3.2 9.7 0.00 0.03 0.03 55 1020.8
20260906012442 19 318 8.0 12.9 0.00 0.03 0.03 55 1020.9
20260906011942 20 316 8.0 12.9 0.00 0.03 0.03 54 1020.9
20260906011437 20 309 6.4 12.9 0.00 0.03 0.03 52 1021.0
20260906010932 20 272 3.2 3.2 0.00 0.03 0.03 51 1020.9
20260906010428 20 2 4.8 11.3 0.00 0.03 0.03 50 1021.0
20260906005924 21 311 8.0 14.5 0.00 0.03 0.03 49 1020.9
20260906005423 21 329 6.4 14.5 0.00 0.03 0.03 48 1020.9
20260906004922 21 356 9.7 12.9 0.00 0.03 0.03 47 1021.1
20260906004416 22 332 6.4 12.9 0.00 0.03 0.03 47 1021.0
20260906003912 22 302 6.4 11.3 0.00 0.03 0.03 44 1021.1
20260906003407 22 355 4.8 12.9 0.00 0.03 0.03 42 1020.9
20260906002902 22 289 6.4 12.9 0.00 0.03 0.03 42 1020.9
20260906002402 23 335 6.4 11.3 0.00 0.03 0.03 40 1021.2
20260906001857 23 345 9.7 14.5 0.00 0.03 0.03 40 1021.0
20260906001354 23 315 4.8 14.5 0.00 0.03 0.03 40 1021.1
20260906000853 24 283 6.4 12.9 0.00 0.03 0.03 40 1021.0
20260906000355 24 312 6.4 9.7 0.00 0.03 0.03 39 1021.1
20260905235848 25 347 6.4 9.7 0.00 0.03 0.03 38 1021.0
20260905235343 23 339 4.8 6.4 0.00 0.03 0.03 38 1021.0
20260905234838 23 14 1.6 3.2 0.00 0.03 0.03 36 1021.1
20260905234333 24 356 4.8 6.4 0.00 0.03 0.03 35 1021.0
20260905233829 24 273 0.0 3.2 0.00 0.03 0.03 36 1021.0
20260905233323 24 36 3.2 11.3 0.00 0.03 0.03 35 1021.0
20260905232822 24 51 6.4 11.3 0.00 0.03 0.03 35 1021.1